Change the Weather History Date:

Sunday, June 15, 2014

  Actual Average Record
Temperature  
Mean Temperature 64 °F 65 °F  
Max Temperature 76 °F 74 °F 94 °F (1988)
Min Temperature 52 °F 56 °F 41 °F (1978)
Degree Days  
Heating Degree Days 1 3  
Month to date heating degree days 36 60  
Since 1 June heating degree days 36 60  
Since 1 July heating degree days 7064 6694  
Cooling Degree Days 0 3  
Month to date cooling degree days 19 30  
Year to date cooling degree days 27 52  
Since 1 June cooling degree days 19 30  
Growing Degree Days 12 (Base 50)    
Moisture  
Dew Point 49 °F    
Average Humidity 65    
Maximum Humidity 89    
Minimum Humidity 41    
Precipitation  
Precipitation 0.00 in 0.14 in 1.87 in (1903)
Month to date precipitation 0.89 2.28  
Year to date precipitation 22.08 21.51  
Sea Level Pressure  
Sea Level Pressure 30.02 in    
Wind  
Wind Speed 13 mph (NW)    
Max Wind Speed 21 mph    
Max Gust Speed 31 mph    
Visibility 10 miles    
Events      
T = Trace of Precipitation, MM = Missing Value Source: NWS Daily Summary

Daily Weather History Graph

Daily Weather History Graph

Search for Another Location

Airport or City:

Trip Planner

Search our weather history database for the weather conditions in past years. The results will help you decide how hot, cold, wet, or windy it might be!

Date:

Astronomy

Jun. 15, 2014 Rise Set
Actual Time 5:10 AM EDT 8:25 PM EDT
Civil Twilight 4:35 AM EDT 9:00 PM EDT
Nautical Twilight 3:51 AM EDT 9:45 PM EDT
Astronomical Twilight 2:56 AM EDT 10:39 PM EDT
Moon 10:30 PM EDT (6/15) 8:02 AM EDT (6/15)
Length of Visible Light 16h 24m
Length of Day
15h 15m
Waning Gibbous, 91% of the Moon is Illuminated
Jun 15
Waning Gibbous
Jun 19
Last Quarter
Jun 27
New
Jul 5
First Quarter
Jul 12
Full

Hourly Weather History & Observations

Time (EDT) Temp. Dew Point Humidity Pressure Visibility Wind Dir Wind Speed Gust Speed Precip Events Conditions
12:54 AM 54.0 °F 48.9 °F 83% 29.94 in 10.0 mi WNW 15.0 mph - N/A   Partly Cloudy
1:54 AM 54.0 °F 48.9 °F 83% 29.94 in 10.0 mi NW 13.8 mph - N/A   Clear
2:54 AM 53.1 °F 48.9 °F 86% 29.94 in 10.0 mi WNW 13.8 mph - N/A   Clear
3:54 AM 52.0 °F 48.0 °F 86% 29.95 in 10.0 mi WNW 13.8 mph - N/A   Clear
4:54 AM 53.1 °F 48.9 °F 86% 29.96 in 10.0 mi NW 15.0 mph - N/A   Clear
5:54 AM 54.0 °F 48.9 °F 83% 29.98 in 10.0 mi WNW 18.4 mph 25.3 mph N/A   Clear
6:54 AM 55.4 °F 48.2 °F 77% 30.00 in 10.0 mi NW 13.8 mph 24.2 mph N/A   Clear
7:54 AM 59.0 °F 50.0 °F 72% 30.02 in 10.0 mi North 17.3 mph 27.6 mph N/A   Clear
8:54 AM 62.1 °F 48.9 °F 62% 30.03 in 10.0 mi NNW 13.8 mph 21.9 mph N/A   Clear
9:54 AM 64.0 °F 50.0 °F 60% 30.03 in 10.0 mi NNW 15.0 mph 21.9 mph N/A   Clear
10:54 AM 66.0 °F 51.1 °F 59% 30.02 in 10.0 mi NW 13.8 mph 21.9 mph N/A   Clear
11:54 AM 69.1 °F 51.1 °F 53% 30.03 in 10.0 mi NNW 15.0 mph 20.7 mph N/A   Partly Cloudy
12:54 PM 70.0 °F 52.0 °F 53% 30.02 in 10.0 mi WNW 13.8 mph 18.4 mph N/A   Partly Cloudy
1:54 PM 72.0 °F 53.1 °F 51% 30.03 in 10.0 mi NW 10.4 mph - N/A   Partly Cloudy
2:54 PM 73.0 °F 51.1 °F 46% 30.02 in 10.0 mi NNW 12.7 mph 21.9 mph N/A   Clear
3:54 PM 73.9 °F 54.0 °F 50% 30.03 in 10.0 mi NNW 13.8 mph - N/A   Partly Cloudy
4:54 PM 73.9 °F 51.1 °F 45% 30.02 in 10.0 mi NNW 10.4 mph 21.9 mph N/A   Clear
5:54 PM 73.0 °F 48.9 °F 42% 30.02 in 10.0 mi NNW 16.1 mph 24.2 mph N/A   Clear
6:54 PM 73.0 °F 51.1 °F 46% 30.03 in 10.0 mi NNW 10.4 mph - N/A   Clear
7:54 PM 70.0 °F 48.0 °F 46% 30.05 in 10.0 mi NNW 9.2 mph - N/A   Clear
8:54 PM 66.0 °F 48.9 °F 54% 30.06 in 10.0 mi NNW 10.4 mph - N/A   Clear
9:54 PM 66.0 °F 45.0 °F 47% 30.08 in 10.0 mi NNW 11.5 mph - N/A   Clear
10:54 PM 64.0 °F 43.0 °F 46% 30.09 in 10.0 mi North 8.1 mph - N/A   Clear
11:54 PM 62.1 °F 42.1 °F 48% 30.09 in 10.0 mi North 9.2 mph - N/A   Clear